Time,TemperatureF,DewpointF,PressureIn,WindDirection,WindDirectionDegrees,WindSpeedMPH,WindSpeedGustMPH,Humidity,HourlyPrecipIn,Conditions,Clouds,dailyrainin,SoftwareType,DateUTC
2014-08-21 00:01:00,71.0,68.6,30.04,SSE,149,0.0,0.0,92,0.00,,---,0.00,VWS V15.00,2014-08-21 04:01:00,
2014-08-21 00:10:00,70.9,68.8,30.04,SSE,149,0.0,0.0,93,0.00,,---,0.00,VWS V15.00,2014-08-21 04:10:00,
2014-08-21 00:20:00,70.8,68.7,30.04,SSE,149,0.0,0.0,93,0.00,,---,0.00,VWS V15.00,2014-08-21 04:20:00,
2014-08-21 00:30:00,70.6,68.5,30.04,SSE,149,0.0,0.0,93,0.00,,---,0.00,VWS V15.00,2014-08-21 04:30:00,
2014-08-21 00:40:00,70.5,68.4,30.04,SSE,149,0.0,0.0,93,0.00,,---,0.00,VWS V15.00,2014-08-21 04:40:00,
2014-08-21 00:50:00,70.3,68.2,30.04,SSE,149,0.0,0.0,93,0.00,,---,0.00,VWS V15.00,2014-08-21 04:50:00,
2014-08-21 01:00:00,70.2,68.1,30.03,SSE,149,0.0,0.0,93,0.00,,---,0.00,VWS V15.00,2014-08-21 05:00:00,
2014-08-21 01:10:00,70.1,68.0,30.04,SSE,149,0.0,0.0,93,0.00,,---,0.00,VWS V15.00,2014-08-21 05:10:00,
2014-08-21 01:20:00,70.1,68.0,30.03,SSE,149,0.0,0.0,93,0.00,,---,0.00,VWS V15.00,2014-08-21 05:20:00,
2014-08-21 01:30:00,70.1,68.0,30.04,SSE,149,0.0,0.0,93,0.00,,---,0.00,VWS V15.00,2014-08-21 05:30:00,
2014-08-21 01:40:00,70.1,68.0,30.04,SSE,149,0.0,0.0,93,0.00,,---,0.00,VWS V15.00,2014-08-21 05:40:00,
2014-08-21 01:50:00,69.9,67.8,30.04,SSE,149,0.0,0.0,93,0.00,,---,0.00,VWS V15.00,2014-08-21 05:50:00,
2014-08-21 02:00:00,69.8,67.7,30.04,SSE,149,0.0,0.0,93,0.00,,---,0.00,VWS V15.00,2014-08-21 06:00:00,
2014-08-21 02:10:00,69.6,67.8,30.04,SSE,149,0.0,0.0,94,0.00,,---,0.00,VWS V15.00,2014-08-21 06:10:00,
2014-08-21 02:20:00,69.3,67.5,30.04,SSE,149,0.0,0.0,94,0.00,,---,0.00,VWS V15.00,2014-08-21 06:20:00,
2014-08-21 02:30:00,69.1,67.3,30.03,SSE,149,0.0,0.0,94,0.00,,---,0.00,VWS V15.00,2014-08-21 06:30:00,
2014-08-21 02:40:00,69.0,67.2,30.02,SSE,149,0.0,0.0,94,0.00,,---,0.00,VWS V15.00,2014-08-21 06:40:00,
2014-08-21 02:50:00,68.9,67.1,30.03,SSE,149,0.0,0.0,94,0.00,,---,0.00,VWS V15.00,2014-08-21 06:50:00,
2014-08-21 03:00:00,68.8,67.0,30.03,SSE,149,0.0,0.0,94,0.00,,---,0.00,VWS V15.00,2014-08-21 07:00:00,
2014-08-21 03:10:00,68.6,66.8,30.04,SSE,149,0.0,0.0,94,0.00,,---,0.00,VWS V15.00,2014-08-21 07:10:00,
2014-08-21 03:20:00,68.4,66.6,30.03,SSE,149,0.0,0.0,94,0.00,,---,0.00,VWS V15.00,2014-08-21 07:20:00,
2014-08-21 03:30:00,68.2,66.4,30.03,SSE,149,0.0,0.0,94,0.00,,---,0.00,VWS V15.00,2014-08-21 07:30:00,
2014-08-21 03:40:00,68.4,66.9,30.03,SSE,149,0.0,0.0,95,0.00,,---,0.00,VWS V15.00,2014-08-21 07:40:00,
2014-08-21 03:50:00,68.5,66.7,30.03,SSE,149,0.0,0.0,94,0.00,,---,0.00,VWS V15.00,2014-08-21 07:50:00,
2014-08-21 04:00:00,68.6,66.8,30.03,SSE,149,0.0,0.0,94,0.00,,---,0.00,VWS V15.00,2014-08-21 08:00:00,
2014-08-21 04:10:00,68.6,66.8,30.03,SSE,149,0.0,0.0,94,0.00,,---,0.00,VWS V15.00,2014-08-21 08:10:00,
2014-08-21 04:20:00,68.4,66.6,30.03,SSE,149,0.0,0.0,94,0.00,,---,0.00,VWS V15.00,2014-08-21 08:20:00,
2014-08-21 04:30:00,68.7,67.2,30.03,SSE,149,0.0,0.0,95,0.00,,---,0.00,VWS V15.00,2014-08-21 08:30:00,
2014-08-21 04:40:00,68.8,67.3,30.02,SSE,149,0.0,0.0,95,0.00,,---,0.00,VWS V15.00,2014-08-21 08:40:00,
2014-08-21 04:50:00,68.6,67.1,30.01,SSE,149,0.0,0.0,95,0.00,,---,0.00,VWS V15.00,2014-08-21 08:50:00,
2014-08-21 05:00:00,68.7,67.2,30.01,SSE,149,0.0,0.0,95,0.00,,---,0.00,VWS V15.00,2014-08-21 09:00:00,
2014-08-21 05:11:00,68.9,67.4,30.02,SSE,149,0.0,0.0,95,0.00,,---,0.00,VWS V15.00,2014-08-21 09:11:00,
2014-08-21 05:20:00,68.6,67.1,30.03,SSE,149,0.0,0.0,95,0.00,,---,0.00,VWS V15.00,2014-08-21 09:20:00,
2014-08-21 05:30:00,68.8,67.3,30.03,SSE,149,0.0,0.0,95,0.00,,---,0.00,VWS V15.00,2014-08-21 09:30:00,
2014-08-21 05:40:00,69.0,67.5,30.03,SSE,149,0.0,0.0,95,0.00,,---,0.00,VWS V15.00,2014-08-21 09:40:00,
2014-08-21 05:50:00,68.8,67.3,30.03,SSE,149,0.0,0.0,95,0.00,,---,0.00,VWS V15.00,2014-08-21 09:50:00,
2014-08-21 06:00:00,68.4,66.9,30.03,SSE,149,0.0,0.0,95,0.00,,---,0.00,VWS V15.00,2014-08-21 10:00:00,
2014-08-21 06:10:00,68.6,67.1,30.02,SSE,149,0.0,0.0,95,0.00,,---,0.00,VWS V15.00,2014-08-21 10:10:00,
2014-08-21 06:20:00,69.1,67.6,30.02,SSE,149,0.0,0.0,95,0.00,,---,0.00,VWS V15.00,2014-08-21 10:20:00,
2014-08-21 06:30:00,69.1,67.6,30.03,SSE,149,0.0,0.0,95,0.00,,---,0.00,VWS V15.00,2014-08-21 10:30:00,
2014-08-21 06:40:00,69.3,67.8,30.03,SSE,149,0.0,0.0,95,0.00,,---,0.00,VWS V15.00,2014-08-21 10:40:00,
2014-08-21 06:50:00,69.3,67.8,30.03,SSE,149,0.0,0.0,95,0.00,,---,0.00,VWS V15.00,2014-08-21 10:50:00,
2014-08-21 07:00:00,69.2,67.7,30.03,SSE,149,0.0,0.0,95,0.00,,---,0.00,VWS V15.00,2014-08-21 11:00:00,
2014-08-21 07:10:00,69.2,67.7,30.04,SSE,149,0.0,0.0,95,0.00,,---,0.00,VWS V15.00,2014-08-21 11:10:00,
2014-08-21 07:20:00,69.1,67.6,30.05,SSE,149,0.0,0.0,95,0.00,,---,0.00,VWS V15.00,2014-08-21 11:20:00,
2014-08-21 07:30:00,69.3,67.8,30.05,SSE,149,0.0,0.0,95,0.00,,---,0.00,VWS V15.00,2014-08-21 11:30:00,
2014-08-21 07:40:00,69.5,68.0,30.05,SSE,149,0.0,0.0,95,0.00,,---,0.00,VWS V15.00,2014-08-21 11:40:00,
2014-08-21 07:50:00,69.6,68.1,30.06,SSE,149,0.0,0.0,95,0.00,,---,0.00,VWS V15.00,2014-08-21 11:50:00,
2014-08-21 08:00:00,69.7,68.2,30.06,SSE,149,0.0,0.0,95,0.00,,---,0.00,VWS V15.00,2014-08-21 12:00:00,
2014-08-21 08:10:00,70.1,68.6,30.05,ESE,112,1.0,4.0,95,0.00,,---,0.00,VWS V15.00,2014-08-21 12:10:00,
2014-08-21 08:20:00,70.5,69.0,30.05,SSE,148,1.0,3.0,95,0.00,,---,0.00,VWS V15.00,2014-08-21 12:20:00,
2014-08-21 08:30:00,70.8,69.3,30.05,SSE,148,0.0,2.0,95,0.00,,---,0.00,VWS V15.00,2014-08-21 12:30:00,
2014-08-21 08:40:00,71.3,69.8,30.06,SSE,148,1.0,3.0,95,0.00,,---,0.00,VWS V15.00,2014-08-21 12:40:00,
2014-08-21 08:50:00,71.7,70.2,30.07,SSE,148,0.0,1.0,95,0.00,,---,0.00,VWS V15.00,2014-08-21 12:50:00,
2014-08-21 09:00:00,72.1,70.6,30.06,SSE,148,1.0,3.0,95,0.00,,---,0.00,VWS V15.00,2014-08-21 13:00:00,
2014-08-21 09:10:00,72.4,70.9,30.06,SE,124,0.0,2.0,95,0.00,,---,0.00,VWS V15.00,2014-08-21 13:10:00,
2014-08-21 09:20:00,72.6,70.8,30.06,SE,124,0.0,2.0,94,0.00,,---,0.00,VWS V15.00,2014-08-21 13:20:00,
2014-08-21 09:30:00,72.7,70.9,30.07,SE,124,0.0,1.0,94,0.00,,---,0.00,VWS V15.00,2014-08-21 13:30:00,
2014-08-21 09:40:00,72.7,70.6,30.07,SSW,205,0.0,2.0,93,0.00,,---,0.00,VWS V15.00,2014-08-21 13:40:00,
2014-08-21 09:50:00,72.6,70.5,30.07,SSW,205,0.0,1.0,93,0.00,,---,0.00,VWS V15.00,2014-08-21 13:50:00,
2014-08-21 10:00:00,72.4,70.3,30.07,SW,215,0.0,2.0,93,0.00,,---,0.00,VWS V15.00,2014-08-21 14:00:00,
2014-08-21 10:10:00,72.3,70.2,30.07,SW,215,0.0,0.0,93,0.01,,---,0.01,VWS V15.00,2014-08-21 14:10:00,
2014-08-21 10:20:00,72.1,70.3,30.07,SW,215,0.0,0.0,94,0.02,,---,0.02,VWS V15.00,2014-08-21 14:20:00,
2014-08-21 10:30:00,71.9,70.1,30.07,SW,215,0.0,0.0,94,0.04,,---,0.04,VWS V15.00,2014-08-21 14:30:00,
2014-08-21 10:40:00,71.8,70.0,30.08,SW,215,0.0,0.0,94,0.06,,---,0.06,VWS V15.00,2014-08-21 14:40:00,
2014-08-21 10:50:00,71.6,69.8,30.07,SW,217,1.0,4.0,94,0.11,,---,0.11,VWS V15.00,2014-08-21 14:50:00,
2014-08-21 11:00:00,71.5,70.0,30.07,SE,132,0.0,4.0,95,0.14,,---,0.14,VWS V15.00,2014-08-21 15:00:00,
2014-08-21 11:10:00,71.6,70.1,30.07,SE,136,0.0,2.0,95,0.14,,---,0.14,VWS V15.00,2014-08-21 15:10:00,
2014-08-21 11:20:00,71.8,70.3,30.07,SSE,159,0.0,2.0,95,0.13,,---,0.14,VWS V15.00,2014-08-21 15:20:00,
2014-08-21 11:30:00,71.9,70.4,30.07,SE,143,0.0,2.0,95,0.12,,---,0.14,VWS V15.00,2014-08-21 15:30:00,
2014-08-21 11:40:00,72.0,70.5,30.07,SE,143,0.0,4.0,95,0.10,,---,0.14,VWS V15.00,2014-08-21 15:40:00,
2014-08-21 11:50:00,72.0,70.5,30.08,SE,143,0.0,0.0,95,0.08,,---,0.14,VWS V15.00,2014-08-21 15:50:00,
2014-08-21 12:00:00,72.0,70.5,30.09,SE,143,0.0,0.0,95,0.03,,---,0.14,VWS V15.00,2014-08-21 16:00:00,
2014-08-21 12:10:00,72.1,70.6,30.09,SSE,161,0.0,0.0,95,0.00,,---,0.14,VWS V15.00,2014-08-21 16:10:00,
2014-08-21 12:20:00,72.1,70.6,30.09,SSE,161,0.0,0.0,95,0.00,,---,0.14,VWS V15.00,2014-08-21 16:20:00,
2014-08-21 12:30:00,72.1,70.6,30.08,SSE,161,0.0,0.0,95,0.01,,---,0.15,VWS V15.00,2014-08-21 16:30:00,